カタログに戻る

STARLINK-36691

運用中通信SSO
NORAD 67735·PAYLOAD·🇺🇸 United States

打ち上げ Feb 11, 2026 から Vandenberg Space Force Base

Loading…

次のパス (今後24時間)

TLE

最新Source: CelesTrak SupGP

元期: Sep 15, 2026, 02:42 UTC

1 67735C 26026Q   26258.11298611 -.00000934  00000+0 -28991-4 0  2584
2 67735  97.2848 310.0455 0000996  89.6088  12.3229 15.33441754    16

AllMySatでSTARLINK-36691をリアルタイム追跡

Download on the App Store